Wind_Speed
47 48 50 51 51 52 54 55 54 53 53 53 53 54 55 57 58 59 58 57 55 55 55 55 55 55 55 54 54 53 52 52 51 51 50 49 48 45
46 46 47 49 49 51 52 52 53 54 52 52 53 54 55 56 58 59 59 58 56 56 57 58 58 57 56 55 56 55 55 54 53 53 51 50 50 49
43 43 44 46 48 49 50 50 51 51 52 52 52 53 55 56 57 57 58 60 60 59 58 59 59 59 57 56 57 58 58 58 57 56 54 53 53 52
41 41 42 43 44 45 47 49 50 51 52 52 52 53 54 55 57 58 60 61 61 61 60 59 59 59 59 59 58 58 59 59 60 59 58 56 55 55
39 40 41 42 42 43 45 46 48 50 51 52 52 54 55 56 58 59 59 60 61 62 61 61 60 60 59 59 59 59 59 60 60 60 60 59 58 56
38 39 40 41 42 44 45 47 49 50 50 51 52 53 54 55 56 57 58 59 60 61 61 61 61 61 61 61 60 60 60 61 61 61 62 61 60 59
37 38 40 41 42 44 45 46 48 49 50 51 52 53 53 54 55 56 57 57 58 59 60 61 62 62 63 62 62 62 62 63 64 63 61 61 61 61
36 37 39 40 41 43 44 46 47 47 49 51 52 53 53 54 55 56 56 56 56 57 58 59 61 62 63 62 62 62 63 64 64 64 62 62 63 63
37 38 40 41 43 44 45 46 47 48 49 50 50 52 53 54 55 55 55 55 56 57 58 58 59 60 62 63 64 64 63 63 63 63 63 63 64 64
38 39 40 41 42 44 45 45 46 47 48 49 50 51 51 52 53 54 55 56 57 58 60 59 60 60 62 65 66 66 65 65 64 63 63 63 64 64
39 39 40 41 42 43 43 44 45 46 47 49 50 51 51 52 53 54 55 56 57 58 59 59 59 60 60 62 64 66 66 65 65 64 64 64 63 63
39 40 41 42 43 43 44 44 45 46 47 48 50 51 52 53 54 54 55 56 56 57 58 59 59 60 59 59 60 61 62 63 62 62 62 62 62 61
40 41 42 43 44 44 44 45 46 46 46 48 49 50 52 53 53 54 55 55 55 56 57 58 58 58 58 56 56 58 59 60 60 60 61 61 60 60
41 42 43 43 43 43 44 45 46 46 47 48 49 50 51 52 53 53 54 54 54 55 55 56 56 56 55 55 55 56 56 57 58 58 58 58 58 57
42 43 43 43 43 44 45 45 46 47 48 48 49 50 51 51 51 51 52 52 51 52 53 54 54 53 53 53 53 53 53 54 55 55 54 55 55 55
43 43 44 44 44 45 46 46 47 48 48 48 48 49 49 49 49 50 51 51 51 51 51 51 51 51 50 50 49 48 48 49 49 51 50 50 51 51
43 43 44 44 45 46 46 47 48 48 48 48 48 48 48 49 49 49 50 51 50 49 48 47 47 47 46 46 45 44 43 43 43 44 46 46 47 48
44 44 45 45 45 45 45 46 46 46 46 46 47 47 47 47 47 47 47 47 46 45 43 43 42 41 40 40 40 39 38 39 40 41 41 42 42 42
45 45 46 45 45 45 44 44 44 45 45 45 45 44 43 43 43 42 41 41 40 39 38 38 37 36 35 34 34 36 35 34 35 35 36 37 37 37
44 45 44 44 44 43 43 43 43 43 43 42 41 40 40 40 39 38 37 36 34 33 33 33 33 32 31 31 31 32 33 32 32 31 32 32 32 32
43 43 42 42 42 42 41 41 41 40 39 38 37 37 37 37 36 35 33 32 31 31 30 30 30 29 29 29 29 29 30 30 30 30 29 29 29 30
41 41 41 41 40 40 38 38 37 36 35 35 35 35 34 33 32 31 30 29 28 28 27 27 27 27 27 27 26 26 26 27 27 27 26 26 26 26
40 40 40 39 38 37 36 35 34 34 33 33 33 32 31 30 29 28 27 26 26 25 25 25 25 25 25 24 23 23 23 23 23 23 24 24 23 23
Wind_Direction
273 271 270 267 266 265 264 264 264 264 264 264 264 263 263 262 261 262 263 263 264 263 262 263 263 265 265 265 265 264 263 264 266 267 268 268 267 267
274 273 270 268 267 266 266 266 266 266 266 265 265 264 264 263 263 263 262 262 263 263 263 262 263 265 265 265 264 263 263 264 264 265 265 266 265 265
276 274 272 269 268 268 267 267 267 267 267 267 267 267 266 266 264 263 262 262 262 264 264 264 264 264 266 266 265 265 264 264 263 263 263 264 264 264
277 277 275 273 270 269 268 268 268 268 268 268 268 268 268 267 266 265 265 264 263 264 265 264 264 265 266 267 267 265 264 264 263 262 262 263 263 263
279 277 276 274 273 271 271 270 270 270 270 270 270 270 269 269 267 267 266 265 264 264 265 265 265 264 265 266 266 265 264 264 264 263 262 262 262 262
280 278 277 276 274 274 273 272 271 272 272 272 272 272 271 270 269 268 267 267 266 264 264 265 265 265 264 264 265 264 264 265 264 262 262 261 261 262
283 280 279 279 277 276 276 275 274 274 273 274 274 274 272 271 270 269 268 267 266 266 265 265 265 265 265 265 265 264 264 265 264 264 262 261 261 261
285 283 282 281 280 279 279 278 277 276 276 275 274 273 273 273 272 270 269 267 267 267 266 265 265 265 266 265 266 265 266 266 266 264 263 262 262 261
288 286 285 284 283 283 283 282 280 279 278 277 276 275 275 274 273 272 270 268 267 268 267 267 267 267 267 266 267 266 266 266 265 264 262 261 262 261
290 289 288 287 286 285 284 283 282 281 280 279 279 278 277 276 274 273 271 270 270 271 270 269 268 269 268 268 268 267 266 265 265 264 262 261 261 261
292 291 290 290 289 288 287 286 285 284 282 281 281 280 279 278 277 275 273 272 271 272 272 271 271 270 271 270 268 267 266 266 265 264 263 262 261 260
294 293 292 292 291 290 289 288 287 287 286 284 283 282 282 281 280 278 277 275 273 273 273 273 273 273 272 270 269 267 266 265 265 264 263 262 260 259
296 295 294 293 291 291 290 290 289 289 288 287 286 285 284 283 282 280 279 278 276 275 275 275 274 274 273 271 269 267 266 265 264 262 262 261 260 259
297 296 296 295 293 292 291 291 291 291 290 289 288 287 286 284 283 282 280 280 278 278 277 277 276 275 274 272 270 268 267 265 263 261 260 260 259 258
298 297 297 296 294 294 293 293 293 292 291 290 289 288 287 286 284 283 282 281 279 279 278 278 277 276 275 274 271 269 267 264 262 261 259 258 257 256
300 300 299 298 297 296 296 295 294 293 292 291 291 290 288 287 286 284 283 282 281 280 280 279 277 276 276 274 273 270 267 264 260 259 258 258 257 256
302 302 301 300 299 298 297 296 296 295 294 293 292 292 290 288 287 286 285 285 283 281 279 278 277 276 276 275 274 271 268 265 263 259 259 258 257 256
303 303 302 301 300 299 299 299 298 298 297 295 294 294 292 291 289 288 287 286 284 282 279 277 276 275 275 274 273 271 269 266 264 262 261 259 257 254
303 304 303 302 301 300 300 301 301 301 300 299 297 296 295 294 292 291 290 288 286 282 279 277 275 275 274 272 270 269 268 265 264 263 261 259 257 254
305 305 305 304 303 302 302 302 302 303 303 302 300 299 298 297 295 294 293 290 287 283 281 279 277 275 274 273 272 271 269 266 263 262 260 257 255 252
308 308 307 306 306 305 304 304 304 305 305 304 303 302 302 301 299 297 295 292 288 285 283 279 278 277 276 275 274 271 270 268 264 261 257 254 250 249
309 310 309 309 309 308 307 307 307 308 308 307 307 306 305 304 303 300 297 294 290 287 284 282 280 278 277 277 276 273 270 268 265 260 256 252 248 248
311 311 311 311 311 310 310 309 309 309 309 309 309 308 307 307 306 304 301 297 293 289 285 283 280 278 276 276 275 272 269 265 261 257 255 252 249 247
Height
5653 5652 5651 5651 5652 5653 5654 5655 5657 5659 5662 5663 5663 5664 5665 5666 5668 5670 5671 5673 5674 5676 5677 5679 5681 5682 5684 5685 5686 5688 5689 5691 5692 5693 5694 5695 5697 5697
5641 5639 5639 5639 5639 5640 5641 5642 5643 5645 5647 5649 5649 5650 5650 5651 5653 5654 5656 5657 5659 5660 5662 5663 5665 5667 5668 5669 5671 5672 5674 5675 5677 5678 5680 5681 5682 5684
5629 5628 5627 5627 5627 5627 5628 5629 5629 5630 5632 5635 5635 5635 5636 5637 5637 5638 5639 5641 5643 5644 5645 5647 5649 5650 5652 5653 5654 5656 5657 5659 5660 5662 5663 5666 5667 5669
5619 5618 5617 5616 5616 5615 5616 5616 5616 5617 5618 5619 5620 5620 5621 5621 5622 5622 5623 5624 5626 5627 5628 5630 5631 5633 5635 5636 5637 5638 5640 5642 5643 5645 5647 5649 5651 5652
5608 5607 5606 5605 5605 5604 5604 5604 5604 5603 5603 5604 5605 5605 5605 5605 5605 5605 5606 5607 5608 5610 5611 5612 5614 5615 5617 5619 5620 5621 5622 5624 5626 5628 5630 5632 5634 5636
5599 5597 5596 5595 5594 5593 5592 5592 5591 5590 5590 5589 5589 5589 5589 5588 5588 5588 5589 5589 5590 5592 5593 5594 5596 5597 5599 5600 5602 5603 5604 5605 5607 5609 5611 5613 5615 5618
5590 5588 5586 5584 5583 5582 5580 5579 5578 5577 5576 5575 5574 5574 5573 5572 5572 5571 5572 5572 5573 5574 5575 5576 5578 5579 5579 5581 5582 5583 5585 5586 5587 5589 5591 5594 5597 5599
5581 5578 5576 5574 5572 5570 5568 5566 5564 5563 5562 5560 5559 5558 5557 5556 5555 5554 5554 5555 5557 5558 5557 5558 5558 5559 5560 5561 5562 5563 5564 5565 5567 5569 5571 5574 5577 5580
5571 5568 5566 5563 5560 5558 5555 5553 5551 5549 5547 5545 5544 5542 5541 5540 5538 5538 5537 5536 5538 5537 5538 5540 5539 5540 5541 5541 5541 5542 5543 5545 5546 5548 5550 5553 5556 5559
5561 5558 5555 5552 5549 5546 5543 5540 5537 5535 5533 5531 5529 5527 5524 5522 5520 5520 5519 5519 5519 5518 5518 5521 5520 5520 5521 5520 5519 5520 5521 5523 5525 5526 5529 5532 5535 5538
5551 5548 5544 5541 5537 5534 5531 5528 5525 5521 5518 5515 5513 5510 5508 5506 5504 5502 5501 5501 5501 5500 5498 5499 5500 5500 5501 5499 5497 5497 5498 5500 5502 5504 5507 5510 5513 5516
5541 5537 5533 5529 5525 5521 5518 5515 5511 5508 5504 5500 5497 5494 5491 5489 5486 5484 5483 5482 5482 5482 5480 5479 5479 5478 5481 5481 5477 5475 5476 5478 5480 5482 5484 5487 5490 5493
5530 5526 5521 5517 5513 5509 5505 5501 5498 5494 5490 5486 5482 5478 5475 5472 5469 5466 5464 5463 5462 5462 5460 5459 5459 5457 5457 5461 5460 5457 5456 5457 5459 5460 5463 5465 5468 5471
5518 5514 5509 5504 5500 5496 5492 5488 5484 5480 5476 5471 5467 5463 5459 5456 5452 5449 5447 5445 5443 5442 5440 5439 5439 5438 5437 5438 5440 5439 5438 5437 5439 5441 5443 5445 5448 5451
5506 5501 5496 5492 5487 5483 5478 5474 5470 5466 5461 5457 5453 5448 5444 5440 5436 5433 5430 5428 5426 5423 5422 5420 5419 5419 5417 5417 5419 5419 5419 5420 5420 5422 5424 5426 5429 5432
5494 5489 5484 5479 5474 5470 5465 5460 5456 5451 5446 5442 5438 5433 5429 5425 5421 5418 5415 5412 5410 5408 5404 5403 5401 5401 5400 5399 5399 5400 5400 5401 5403 5403 5406 5408 5411 5413
5482 5477 5472 5467 5462 5456 5451 5446 5441 5436 5432 5427 5422 5418 5414 5410 5406 5402 5399 5396 5394 5392 5390 5387 5385 5384 5384 5383 5383 5383 5384 5385 5386 5387 5389 5392 5394 5396
5470 5464 5459 5454 5448 5443 5438 5433 5427 5422 5417 5413 5408 5403 5399 5395 5391 5387 5384 5381 5378 5376 5374 5373 5372 5371 5370 5369 5369 5369 5370 5371 5372 5373 5373 5375 5378 5380
5457 5452 5446 5441 5435 5430 5425 5420 5415 5409 5404 5399 5394 5390 5385 5381 5377 5374 5370 5367 5364 5362 5360 5359 5358 5358 5358 5358 5358 5357 5357 5358 5358 5359 5360 5362 5364 5367
5445 5440 5434 5428 5423 5417 5412 5407 5402 5397 5392 5387 5382 5377 5373 5369 5365 5362 5358 5355 5352 5350 5349 5347 5347 5347 5347 5348 5348 5347 5346 5346 5347 5348 5349 5351 5353 5355
5434 5428 5422 5417 5411 5406 5401 5396 5391 5386 5381 5376 5371 5367 5362 5358 5354 5351 5347 5344 5342 5340 5339 5338 5337 5337 5337 5336 5337 5337 5336 5336 5337 5338 5339 5341 5344 5346
5424 5418 5412 5406 5401 5395 5390 5385 5381 5376 5371 5366 5362 5357 5353 5349 5345 5341 5338 5335 5333 5331 5330 5329 5328 5327 5327 5327 5327 5328 5328 5328 5328 5329 5330 5332 5335 5338
5414 5409 5403 5397 5392 5386 5381 5377 5372 5367 5363 5358 5354 5349 5345 5341 5337 5333 5330 5327 5325 5323 5322 5321 5320 5320 5319 5319 5319 5319 5320 5320 5321 5322 5323 5324 5327 5329